Total_Precipitation_Accumulation
0.00 0.00 0.00 0.00 0.00 0.00 0.00 0.00 0.00 0.00 0.00 0.00 0.00 0.00 0.00 0.00 0.00 0.00 0.00 0.00 0.00 0.00 0.00 0.00 0.00 0.00 0.00 0.00 0.00 0.00 0.00 0.03 0.05 0.13 0.13 0.02 0.12 0.47 0.02 0.04 0.02 0.02 0.02 0.05 0.03 0.04 0.04 0.01 0.00 0.00 0.00 0.00 0.00 0.00 0.00 0.00 0.00 0.00 0.00 0.00 0.00 0.00 0.00 0.00 0.01 0.01 0.02 0.01 0.01 0.01 0.01 0.01 0.01 0.01 0.02 0.02 0.03 0.02 0.02 0.01 0.02 0.03 0.07 0.05 0.04 0.03 0.01 0.01 0.01 0.02 0.02 0.02 0.01 0.02 0.03 0.03 0.03
0.00 0.00 0.00 0.00 0.00 0.00 0.00 0.00 0.00 0.00 0.00 0.00 0.00 0.00 0.00 0.00 0.00 0.00 0.00 0.00 0.00 0.00 0.00 0.00 0.00 0.00 0.00 0.00 0.00 0.00 0.00 0.01 0.00 0.01 0.07 0.10 0.13 0.40 0.14 0.03 0.01 0.02 0.03 0.05 0.03 0.02 0.03 0.05 0.01 0.00 0.00 0.00 0.00 0.00 0.00 0.00 0.00 0.00 0.01 0.00 0.00 0.00 0.01 0.01 0.00 0.01 0.01 0.00 0.01 0.01 0.01 0.01 0.02 0.02 0.05 0.04 0.02 0.01 0.02 0.02 0.03 0.05 0.05 0.03 0.02 0.01 0.03 0.02 0.03 0.01 0.01 0.01 0.01 0.02 0.02 0.02 0.03
0.00 0.00 0.00 0.00 0.00 0.00 0.00 0.00 0.00 0.00 0.00 0.00 0.00 0.00 0.00 0.00 0.00 0.00 0.00 0.00 0.00 0.00 0.00 0.00 0.00 0.00 0.00 0.00 0.00 0.00 0.33 0.03 0.01 0.03 0.08 0.11 0.08 0.29 0.19 0.07 0.02 0.01 0.02 0.04 0.04 0.02 0.02 0.04 0.00 0.00 0.02 0.00 0.00 0.00 0.01 0.00 0.00 0.00 0.00 0.01 0.01 0.02 0.00 0.00 0.00 0.01 0.01 0.01 0.02 0.02 0.03 0.03 0.04 0.04 0.02 0.01 0.01 0.00 0.00 0.01 0.03 0.04 0.04 0.02 0.02 0.02 0.03 0.03 0.07 0.11 0.02 0.04 0.03 0.02 0.02 0.02 0.02
0.00 0.00 0.00 0.00 0.00 0.00 0.00 0.00 0.00 0.00 0.00 0.00 0.00 0.00 0.00 0.00 0.00 0.00 0.00 0.00 0.00 0.00 0.00 0.00 0.00 0.00 0.00 0.00 0.04 0.00 0.01 0.10 0.06 0.01 0.11 0.11 0.08 0.11 0.17 0.08 0.04 0.05 0.03 0.04 0.03 0.03 0.02 0.05 0.02 0.00 0.01 0.00 0.00 0.01 0.01 0.01 0.00 0.00 0.00 0.00 0.00 0.00 0.00 0.00 0.00 0.00 0.01 0.01 0.02 0.04 0.04 0.03 0.05 0.06 0.03 0.02 0.01 0.00 0.00 0.01 0.02 0.02 0.02 0.02 0.03 0.04 0.03 0.04 0.04 0.06 0.04 0.02 0.02 0.01 0.01 0.02 0.02
0.00 0.00 0.00 0.00 0.00 0.00 0.00 0.00 0.00 0.00 0.00 0.00 0.00 0.00 0.00 0.00 0.00 0.00 0.00 0.00 0.00 0.00 0.00 0.00 0.00 0.00 0.00 0.01 0.00 0.03 0.07 0.03 0.04 0.03 0.03 0.06 0.03 0.12 0.16 0.14 0.06 0.06 0.05 0.06 0.03 0.02 0.03 0.04 0.02 0.00 0.00 0.01 0.01 0.01 0.01 0.01 0.01 0.00 0.00 0.01 0.00 0.00 0.00 0.00 0.00 0.01 0.01 0.02 0.04 0.04 0.06 0.08 0.05 0.09 0.05 0.05 0.02 0.00 0.00 0.00 0.00 0.02 0.02 0.03 0.01 0.02 0.01 0.02 0.02 0.02 0.01 0.02 0.01 0.01 0.03 0.01 0.02
0.00 0.00 0.00 0.00 0.00 0.00 0.00 0.00 0.00 0.00 0.00 0.00 0.00 0.00 0.00 0.00 0.00 0.00 0.00 0.00 0.00 0.00 0.00 0.00 0.00 0.00 0.01 0.04 0.04 0.07 0.07 0.11 0.05 0.02 0.04 0.05 0.10 0.12 0.15 0.08 0.05 0.05 0.06 0.06 0.03 0.01 0.02 0.02 0.01 0.00 0.00 0.02 0.01 0.02 0.02 0.01 0.01 0.01 0.01 0.00 0.00 0.00 0.00 0.00 0.01 0.01 0.03 0.03 0.03 0.06 0.05 0.04 0.13 0.03 0.03 0.07 0.04 0.04 0.02 0.01 0.00 0.01 0.06 0.02 0.01 0.01 0.01 0.02 0.01 0.00 0.00 0.00 0.01 0.01 0.01 0.01 0.01
0.00 0.00 0.00 0.00 0.00 0.00 0.00 0.00 0.00 0.00 0.00 0.00 0.00 0.00 0.00 0.00 0.00 0.00 0.00 0.00 0.00 0.00 0.00 0.00 0.00 0.00 0.02 0.01 0.01 0.04 0.05 0.04 0.02 0.05 0.04 0.06 0.30 0.14 0.26 0.10 0.03 0.06 0.06 0.06 0.04 0.02 0.03 0.01 0.00 0.01 0.00 0.01 0.03 0.02 0.02 0.02 0.02 0.01 0.00 0.00 0.00 0.00 0.00 0.00 0.01 0.02 0.02 0.04 0.04 0.04 0.06 0.03 0.02 0.02 0.08 0.07 0.13 0.06 0.07 0.03 0.06 0.11 0.05 0.01 0.03 0.02 0.02 0.01 0.01 0.01 0.01 0.02 0.01 0.01 0.00 0.00 0.00
0.00 0.00 0.00 0.00 0.00 0.00 0.00 0.00 0.00 0.00 0.00 0.00 0.00 0.00 0.00 0.00 0.00 0.00 0.00 0.00 0.00 0.00 0.00 0.00 0.00 0.00 0.15 0.00 0.12 0.04 0.02 0.03 0.05 0.03 0.01 0.06 0.10 0.17 0.13 0.09 0.06 0.13 0.12 0.13 0.04 0.02 0.19 0.01 0.00 0.00 0.00 0.01 0.02 0.01 0.02 0.03 0.02 0.01 0.01 0.00 0.00 0.01 0.01 0.01 0.01 0.02 0.03 0.04 0.03 0.07 0.07 0.02 0.03 0.03 0.03 0.03 0.04 0.09 0.04 0.02 0.08 0.12 0.06 0.08 0.06 0.02 0.01 0.01 0.01 0.00 0.00 0.01 0.00 0.00 0.00 0.01 0.00
0.00 0.00 0.00 0.00 0.00 0.00 0.00 0.00 0.00 0.00 0.00 0.00 0.00 0.00 0.00 0.00 0.00 0.00 0.00 0.00 0.00 0.00 0.00 0.00 0.00 0.01 0.04 0.03 0.07 0.04 0.06 0.04 0.02 0.05 0.12 0.31 0.09 0.29 0.20 0.25 0.17 0.17 0.33 0.43 0.07 0.07 0.06 0.01 0.00 0.00 0.00 0.00 0.02 0.03 0.03 0.02 0.03 0.02 0.01 0.01 0.00 0.00 0.00 0.00 0.02 0.03 0.05 0.05 0.05 0.07 0.07 0.02 0.03 0.02 0.04 0.03 0.09 0.07 0.01 0.03 0.06 0.13 0.07 0.04 0.03 0.01 0.01 0.02 0.04 0.07 0.01 0.00 0.00 0.00 0.00 0.00 0.00
0.00 0.00 0.00 0.00 0.00 0.00 0.00 0.00 0.00 0.00 0.00 0.00 0.00 0.00 0.00 0.00 0.00 0.00 0.00 0.00 0.00 0.00 0.00 0.00 0.00 0.00 0.01 0.11 0.07 0.09 0.11 0.06 0.03 0.13 0.29 0.06 0.10 0.09 0.24 0.21 0.21 0.15 0.47 0.41 0.15 0.07 0.05 0.21 0.01 0.00 0.00 0.01 0.02 0.03 0.02 0.01 0.02 0.02 0.02 0.00 0.01 0.00 0.00 0.01 0.01 0.04 0.07 0.05 0.04 0.04 0.08 0.03 0.01 0.02 0.01 0.07 0.09 0.05 0.05 0.02 0.04 0.06 0.07 0.05 0.04 0.02 0.00 0.01 0.03 0.02 0.01 0.00 0.01 0.01 0.00 0.00 0.00
0.00 0.00 0.00 0.00 0.00 0.00 0.00 0.00 0.00 0.00 0.00 0.00 0.00 0.00 0.00 0.00 0.00 0.00 0.00 0.00 0.00 0.00 0.00 0.00 0.00 0.00 0.01 0.18 0.18 0.07 0.04 0.04 0.06 0.16 0.11 0.20 0.08 0.09 0.17 0.24 0.21 0.36 0.71 0.45 0.29 0.07 0.09 0.11 0.16 0.01 0.03 0.04 0.03 0.06 0.08 0.04 0.04 0.04 0.01 0.01 0.01 0.01 0.02 0.01 0.04 0.05 0.06 0.03 0.03 0.04 0.04 0.02 0.02 0.03 0.04 0.08 0.06 0.08 0.04 0.04 0.05 0.09 0.07 0.04 0.01 0.01 0.02 0.01 0.01 0.01 0.02 0.01 0.00 0.00 0.00 0.00 0.00
0.00 0.00 0.00 0.00 0.00 0.00 0.00 0.00 0.00 0.00 0.00 0.00 0.00 0.00 0.00 0.00 0.00 0.00 0.00 0.00 0.00 0.00 0.00 0.00 0.00 0.00 0.05 0.11 0.12 0.27 0.07 0.05 0.05 0.07 0.07 0.07 0.08 0.14 0.17 0.31 0.21 0.29 0.81 0.77 0.18 0.12 0.20 0.22 0.22 0.25 0.05 0.07 0.05 0.11 0.06 0.05 0.02 0.02 0.02 0.03 0.05 0.01 0.02 0.02 0.03 0.05 0.05 0.03 0.02 0.01 0.03 0.03 0.04 0.07 0.05 0.05 0.03 0.04 0.03 0.04 0.06 0.08 0.04 0.05 0.02 0.01 0.01 0.01 0.01 0.00 0.00 0.00 0.00 0.00 0.00 0.00 0.00
0.00 0.00 0.00 0.00 0.00 0.00 0.00 0.00 0.00 0.00 0.00 0.00 0.00 0.00 0.00 0.00 0.00 0.00 0.00 0.00 0.00 0.00 0.00 0.01 0.00 0.00 0.10 0.16 0.13 0.17 0.18 0.16 0.08 0.04 0.09 0.03 0.08 0.07 0.12 0.13 0.19 0.38 0.76 0.40 0.20 0.18 0.23 0.11 0.22 0.22 0.18 0.09 0.07 0.07 0.03 0.06 0.06 0.06 0.09 0.04 0.02 0.02 0.03 0.03 0.03 0.05 0.05 0.03 0.01 0.01 0.04 0.03 0.04 0.10 0.07 0.06 0.02 0.03 0.03 0.04 0.01 0.03 0.03 0.03 0.01 0.00 0.00 0.00 0.00 0.00 0.00 0.00 0.00 0.00 0.00 0.00 0.00
0.00 0.00 0.00 0.00 0.00 0.00 0.00 0.00 0.00 0.00 0.00 0.00 0.00 0.00 0.00 0.00 0.00 0.00 0.00 0.00 0.00 0.00 0.00 0.00 0.00 0.00 0.53 0.10 0.41 0.25 0.19 0.07 0.11 0.10 0.08 0.10 0.10 0.16 0.10 0.13 0.15 0.33 0.51 0.61 0.58 0.65 0.31 0.20 0.24 0.22 0.22 0.24 0.30 0.09 0.08 0.06 0.11 0.08 0.06 0.07 0.05 0.03 0.01 0.04 0.03 0.03 0.04 0.02 0.02 0.06 0.07 0.07 0.04 0.05 0.03 0.03 0.03 0.04 0.01 0.01 0.05 0.03 0.04 0.01 0.00 0.01 0.00 0.00 0.00 0.00 0.00 0.00 0.00 0.00 0.00 0.00 0.00
0.00 0.00 0.00 0.00 0.00 0.00 0.00 0.00 0.00 0.00 0.00 0.00 0.00 0.00 0.00 0.00 0.00 0.00 0.00 0.00 0.01 0.00 0.00 0.00 0.00 0.01 0.69 0.12 0.25 0.17 0.07 0.05 0.05 0.04 0.10 0.17 0.21 0.07 0.10 0.09 0.14 0.18 0.20 0.37 0.52 0.45 0.27 0.37 0.25 0.28 0.39 0.23 0.25 0.16 0.22 0.24 0.07 0.08 0.00 0.01 0.01 0.00 0.01 0.01 0.01 0.02 0.04 0.03 0.02 0.05 0.07 0.07 0.06 0.02 0.01 0.02 0.01 0.01 0.03 0.03 0.06 0.03 0.01 0.00 0.00 0.00 0.00 0.00 0.00 0.00 0.00 0.00 0.00 0.00 0.00 0.00 0.00
0.00 0.00 0.00 0.00 0.00 0.00 0.00 0.00 0.00 0.00 0.00 0.00 0.00 0.00 0.00 0.00 0.00 0.00 0.00 0.00 0.00 0.00 0.00 0.01 0.00 0.07 0.05 0.06 0.14 0.05 0.03 0.05 0.05 0.04 0.08 0.12 0.12 0.10 0.12 0.11 0.18 0.16 0.15 0.34 0.25 0.29 0.31 0.22 0.24 0.25 0.31 0.32 0.26 0.15 0.15 0.10 0.18 0.06 0.01 0.01 0.02 0.02 0.02 0.01 0.01 0.02 0.04 0.07 0.14 0.13 0.15 0.17 0.12 0.12 0.06 0.15 0.10 0.03 0.01 0.12 0.04 0.01 0.01 0.00 0.00 0.00 0.00 0.00 0.00 0.00 0.00 0.00 0.00 0.00 0.00 0.00 0.00
0.00 0.00 0.00 0.00 0.00 0.00 0.00 0.00 0.00 0.00 0.00 0.00 0.00 0.00 0.00 0.00 0.00 0.00 0.00 0.00 0.01 0.00 0.00 0.00 0.08 0.01 0.07 0.11 0.09 0.00 0.02 0.03 0.02 0.05 0.04 0.12 0.10 0.15 0.15 0.17 0.17 0.33 0.26 0.29 0.41 0.32 0.37 0.58 0.39 0.40 0.38 0.20 0.28 0.22 0.09 0.07 0.08 0.13 0.13 0.05 0.03 0.04 0.03 0.02 0.02 0.05 0.10 0.15 0.10 0.28 0.09 0.26 0.24 0.20 0.33 0.26 0.08 0.09 0.02 0.03 0.01 0.00 0.00 0.00 0.00 0.00 0.00 0.00 0.00 0.00 0.00 0.00 0.00 0.00 0.00 0.00 0.00
0.00 0.00 0.00 0.00 0.00 0.00 0.00 0.00 0.00 0.00 0.00 0.00 0.00 0.00 0.00 0.00 0.00 0.00 0.00 0.00 0.00 0.00 0.02 0.01 0.02 0.05 0.12 0.04 0.12 0.03 0.03 0.04 0.06 0.05 0.06 0.07 0.06 0.12 0.15 0.15 0.15 0.24 0.21 0.29 0.49 0.40 0.45 0.35 0.45 0.39 0.38 0.36 0.38 0.24 0.15 0.20 0.21 0.21 0.27 0.23 0.23 0.15 0.15 0.13 0.08 0.07 0.29 0.31 0.20 0.19 0.35 0.42 0.29 0.47 0.38 0.43 0.24 0.11 0.08 0.01 0.00 0.00 0.00 0.00 0.00 0.00 0.00 0.00 0.00 0.00 0.00 0.00 0.00 0.00 0.00 0.01 0.00
0.00 0.00 0.00 0.00 0.00 0.00 0.00 0.00 0.00 0.00 0.00 0.00 0.00 0.00 0.00 0.00 0.00 0.00 0.02 0.01 0.01 0.01 0.03 0.04 0.10 0.17 0.19 0.07 0.02 0.04 0.03 0.05 0.06 0.05 0.05 0.06 0.06 0.08 0.12 0.17 0.17 0.23 0.20 0.28 0.60 0.62 0.68 0.76 1.18 0.78 0.63 0.58 0.69 0.37 0.26 0.23 0.39 0.42 0.48 0.49 0.32 0.26 0.35 0.19 0.09 0.18 0.30 0.16 0.23 0.58 0.65 0.46 0.49 0.43 0.60 0.30 0.26 0.08 0.14 0.02 0.00 0.00 0.00 0.00 0.00 0.00 0.00 0.00 0.00 0.00 0.00 0.00 0.00 0.00 0.03 0.05 0.02
0.00 0.00 0.00 0.00 0.00 0.00 0.00 0.00 0.00 0.00 0.00 0.00 0.00 0.00 0.00 0.00 0.00 0.00 0.01 0.01 0.00 0.03 0.01 0.04 0.19 0.35 0.13 0.10 0.11 0.07 0.07 0.05 0.06 0.08 0.11 0.11 0.20 0.26 0.29 0.30 0.27 0.38 0.25 0.18 0.69 0.44 0.33 0.58 0.92 1.05 0.83 1.49 0.53 0.58 0.37 0.26 0.41 0.60 0.42 0.37 0.41 0.43 0.34 0.33 0.20 0.32 0.33 0.78 0.47 0.76 0.77 0.58 0.74 0.47 0.36 0.35 0.29 0.32 0.24 0.03 0.05 0.01 0.00 0.00 0.00 0.01 0.01 0.01 0.01 0.04 0.01 0.00 0.00 0.02 0.20 0.08 0.05
0.00 0.00 0.00 0.00 0.00 0.00 0.00 0.00 0.00 0.00 0.00 0.00 0.00 0.00 0.00 0.00 0.00 0.00 0.00 0.02 0.00 0.06 0.04 0.02 0.09 0.19 0.13 0.12 0.07 0.09 0.07 0.09 0.13 0.44 0.97 0.24 0.16 0.45 0.98 0.79 0.97 0.65 0.25 0.33 0.35 0.41 0.36 0.48 0.76 0.63 0.91 1.71 0.51 0.44 0.67 0.43 0.31 0.35 0.24 0.29 0.36 0.36 0.41 0.41 0.43 0.58 0.75 0.93 0.72 1.08 0.63 0.60 0.61 0.41 0.37 0.31 0.32 0.33 0.24 0.10 0.13 0.08 0.07 0.07 0.01 0.07 0.10 0.11 0.06 0.07 0.03 0.01 0.10 0.16 0.24 0.21 0.06
0.00 0.00 0.00 0.00 0.00 0.00 0.00 0.00 0.00 0.00 0.00 0.00 0.00 0.00 0.00 0.00 0.00 0.00 0.00 0.00 0.03 0.02 0.03 0.01 0.04 0.41 0.08 0.13 0.14 0.10 0.08 0.10 0.25 0.65 1.40 0.47 0.29 0.63 0.95 1.70 0.82 0.41 0.47 0.51 0.82 0.45 0.61 0.38 0.48 0.59 1.73 0.89 0.81 0.42 0.60 0.36 0.44 0.31 0.37 0.39 0.29 0.58 0.82 0.79 0.52 0.85 1.00 0.91 1.07 0.93 1.02 0.56 0.49 0.43 0.34 0.36 0.63 0.57 0.48 0.62 0.46 0.21 0.19 0.13 0.06 0.29 0.24 0.08 0.16 0.07 0.06 0.04 0.08 0.12 0.37 0.14 0.03
0.00 0.00 0.00 0.00 0.00 0.00 0.00 0.00 0.00 0.00 0.00 0.00 0.00 0.00 0.00 0.00 0.00 0.00 0.00 0.00 0.00 0.00 0.00 0.01 0.04 0.13 0.05 0.06 0.05 0.10 0.08 0.13 0.45 1.07 0.95 0.35 0.45 0.70 1.14 1.32 0.64 0.59 0.62 0.96 0.49 0.64 0.70 0.56 0.86 1.45 1.22 0.61 0.39 0.54 0.65 0.29 0.43 0.42 0.48 0.41 0.47 0.51 0.61 0.98 0.75 0.52 1.09 0.77 0.93 0.69 0.70 0.67 0.53 0.28 0.26 0.53 0.48 0.34 0.27 0.24 0.40 0.48 0.18 0.37 0.15 0.40 0.30 0.05 0.05 0.11 0.04 0.04 0.11 0.10 0.36 0.11 0.09
0.00 0.00 0.00 0.00 0.00 0.00 0.00 0.00 0.00 0.00 0.00 0.00 0.00 0.00 0.00 0.00 0.00 0.00 0.00 0.00 0.00 0.01 0.02 0.01 0.04 0.08 0.03 0.05 0.06 0.07 0.09 0.19 0.52 1.51 0.86 0.66 0.78 1.90 2.39 1.31 0.74 0.75 0.63 0.59 0.63 1.03 0.88 0.65 0.90 0.83 1.14 1.06 1.50 0.64 0.64 0.35 0.50 0.62 0.46 0.57 0.59 0.51 0.77 0.98 0.83 1.08 0.81 0.80 0.56 1.07 0.96 0.58 0.50 0.24 0.15 0.16 0.11 0.17 0.27 0.17 0.15 0.21 0.10 0.10 0.14 0.24 0.38 0.10 0.15 0.05 0.08 0.05 0.14 0.07 0.12 0.13 0.15
0.00 0.00 0.00 0.00 0.00 0.00 0.00 0.00 0.00 0.00 0.00 0.00 0.00 0.00 0.00 0.00 0.00 0.00 0.00 0.00 0.00 0.00 0.00 0.01 0.03 0.04 0.05 0.05 0.06 0.07 0.08 0.10 0.48 0.86 0.74 0.91 1.57 3.78 3.61 2.81 1.57 0.74 0.27 0.45 0.95 0.93 0.84 0.60 0.53 1.13 1.39 0.90 1.13 1.13 0.41 0.37 0.60 0.54 0.66 0.80 0.42 0.48 0.54 0.68 0.62 0.90 0.61 0.46 0.82 0.48 0.40 0.74 0.22 0.40 0.46 0.21 0.29 0.29 0.23 0.23 0.36 0.32 0.31 0.27 0.20 0.16 0.52 0.43 0.23 0.31 0.37 0.17 0.11 0.09 0.20 0.15 0.11
0.00 0.00 0.00 0.00 0.00 0.00 0.00 0.00 0.00 0.00 0.00 0.00 0.00 0.00 0.00 0.00 0.00 0.00 0.00 0.00 0.00 0.00 0.00 0.00 0.02 0.03 0.07 0.06 0.04 0.06 0.10 0.07 0.38 0.69 1.30 1.31 1.85 3.97 2.29 2.52 1.85 0.65 0.79 1.24 1.16 0.86 0.71 0.75 0.68 0.94 0.83 0.97 1.22 0.78 0.40 0.41 0.67 0.52 0.63 0.55 0.53 0.35 0.61 0.60 0.31 0.53 0.50 0.56 0.36 0.24 0.41 0.19 0.25 0.32 0.17 0.16 0.28 0.66 0.43 0.17 0.20 0.47 0.30 0.38 0.50 0.46 0.53 0.45 0.40 0.37 0.41 0.25 0.09 0.04 0.12 0.11 0.14
0.00 0.00 0.00 0.00 0.00 0.00 0.00 0.00 0.00 0.00 0.00 0.00 0.00 0.00 0.00 0.00 0.00 0.00 0.00 0.00 0.00 0.00 0.00 0.00 0.01 0.02 0.11 0.09 0.10 0.12 0.07 0.10 0.37 0.70 1.32 1.75 1.95 2.76 1.27 1.83 1.83 2.92 2.58 2.24 2.18 1.56 1.45 1.06 0.76 0.93 1.27 1.43 1.17 1.11 0.90 0.80 0.79 0.48 0.35 0.44 0.42 0.44 0.65 0.51 0.29 0.31 0.43 0.62 0.81 0.42 0.43 0.20 0.19 0.15 0.17 0.27 0.39 0.67 0.76 0.30 0.24 0.36 0.55 0.54 0.45 0.47 0.60 0.46 0.49 0.45 0.63 0.39 0.27 0.20 0.07 0.23 0.16
0.00 0.00 0.00 0.00 0.00 0.00 0.00 0.00 0.00 0.00 0.00 0.00 0.00 0.00 0.00 0.00 0.00 0.00 0.00 0.00 0.00 0.00 0.00 0.01 0.02 0.04 0.09 0.12 0.11 0.16 0.13 0.12 0.17 1.00 1.78 1.02 1.92 2.39 1.64 1.66 1.48 1.45 1.70 2.56 2.39 2.15 1.38 1.57 1.52 0.96 1.62 1.34 0.73 0.78 0.70 0.77 0.46 0.49 0.51 0.49 0.44 0.82 0.40 0.30 0.36 0.32 0.48 0.47 0.67 0.60 0.41 0.42 0.41 0.21 0.27 0.28 0.37 0.36 0.86 0.81 0.62 0.68 0.59 0.45 0.42 0.46 0.45 0.49 0.47 0.67 0.39 0.11 0.03 0.19 0.17 0.14 0.19
0.00 0.00 0.00 0.00 0.00 0.00 0.00 0.00 0.00 0.00 0.00 0.00 0.00 0.00 0.00 0.00 0.00 0.00 0.00 0.00 0.00 0.00 0.00 0.01 0.02 0.04 0.12 0.09 0.16 0.11 0.14 0.10 0.56 0.69 1.38 1.98 2.03 1.82 0.80 0.90 1.31 1.10 1.83 3.45 2.15 1.67 2.05 1.35 2.10 2.42 1.95 1.05 0.79 0.63 0.46 0.47 0.31 0.58 0.62 0.59 0.38 0.44 0.41 0.30 0.29 0.25 0.18 0.47 0.32 0.46 0.56 0.39 0.35 0.20 0.38 0.33 0.50 0.53 0.56 0.63 0.67 0.54 0.55 0.52 0.55 0.54 0.47 0.32 0.56 0.62 0.48 0.24 0.06 0.06 0.08 0.06 0.31
0.00 0.00 0.00 0.00 0.00 0.00 0.00 0.00 0.00 0.00 0.00 0.00 0.00 0.00 0.00 0.00 0.00 0.00 0.00 0.00 0.00 0.00 0.01 0.01 0.07 0.08 0.08 0.09 0.08 0.08 0.09 0.10 0.25 0.63 1.16 1.07 1.43 0.93 0.55 0.77 0.59 1.14 1.57 1.36 1.62 1.45 1.57 1.40 1.48 1.72 1.96 1.45 1.28 0.82 0.57 0.34 0.29 0.53 0.63 0.71 0.67 0.20 0.48 0.45 0.56 0.60 0.29 0.19 0.20 0.22 0.23 0.37 0.43 0.30 0.37 0.24 0.23 0.56 0.40 0.34 0.39 0.54 0.40 0.30 0.39 0.71 0.59 0.32 0.45 0.41 0.21 0.23 0.15 0.15 0.12 0.05 0.46
0.00 0.00 0.00 0.00 0.00 0.00 0.00 0.00 0.00 0.00 0.00 0.00 0.00 0.00 0.00 0.00 0.00 0.00 0.00 0.00 0.00 0.00 0.00 0.01 0.05 0.06 0.05 0.10 0.07 0.07 0.14 0.04 0.17 0.64 0.50 1.15 0.62 0.38 0.52 1.06 1.42 2.60 2.75 0.95 1.09 1.43 1.91 1.24 1.50 1.62 1.86 1.88 1.18 0.59 0.53 0.63 0.57 0.50 0.44 0.71 0.81 0.58 0.54 0.42 0.16 0.23 0.38 0.59 0.78 0.28 0.44 0.31 0.21 0.26 0.25 0.08 0.36 0.24 0.33 0.52 0.31 0.36 0.33 0.30 0.35 0.46 0.43 0.32 0.42 0.40 0.23 0.20 0.36 0.98 0.19 0.09 0.19
0.00 0.00 0.00 0.00 0.00 0.00 0.00 0.00 0.00 0.00 0.00 0.00 0.00 0.00 0.00 0.00 0.00 0.00 0.00 0.00 0.00 0.00 0.00 0.01 0.02 0.05 0.09 0.06 0.07 0.08 0.08 0.15 0.29 0.48 0.49 0.87 0.60 0.71 1.08 1.80 2.13 2.32 2.02 1.99 1.47 1.72 1.10 1.31 2.13 1.61 1.14 1.00 1.02 0.72 0.65 0.67 1.02 0.94 0.86 0.73 0.86 0.88 0.82 0.84 0.61 0.59 0.33 0.34 0.61 0.38 0.79 0.32 0.32 0.13 0.13 0.26 0.22 0.30 0.16 0.14 0.18 0.24 0.23 0.18 0.33 0.44 0.40 0.22 0.48 0.88 0.45 0.26 0.27 0.38 0.44 0.37 0.35
0.00 0.00 0.00 0.00 0.00 0.00 0.00 0.00 0.00 0.00 0.00 0.00 0.00 0.00 0.00 0.00 0.00 0.00 0.00 0.00 0.00 0.00 0.00 0.01 0.02 0.08 0.11 0.10 0.10 0.10 0.18 0.27 0.47 0.25 0.46 0.94 0.96 0.99 1.48 1.86 2.25 1.81 2.36 1.91 2.05 1.99 1.57 1.41 1.71 1.33 1.38 0.96 0.95 0.79 0.54 0.78 1.10 0.92 1.47 1.06 0.48 0.76 0.81 0.54 0.68 0.83 0.77 0.40 0.22 0.20 0.17 0.20 0.09 0.17 0.43 0.35 0.43 0.51 0.54 0.35 0.22 0.16 0.17 0.15 0.27 0.41 0.41 0.27 0.26 0.96 0.22 0.22 0.32 0.23 0.40 0.22 0.41
0.00 0.00 0.00 0.00 0.00 0.00 0.00 0.00 0.00 0.00 0.00 0.00 0.00 0.00 0.00 0.00 0.00 0.00 0.00 0.00 0.00 0.00 0.00 0.01 0.02 0.04 0.08 0.07 0.13 0.07 0.21 0.20 0.24 0.24 0.49 0.80 0.63 1.31 1.36 1.19 1.70 1.95 1.47 2.24 1.78 1.51 1.27 1.49 1.42 1.34 1.53 0.85 0.90 0.90 0.96 1.42 1.51 1.36 0.85 0.56 0.67 0.63 0.24 0.48 0.65 0.38 0.43 0.18 0.14 0.16 0.36 0.16 0.30 0.16 0.46 0.44 0.59 0.35 0.47 0.24 0.51 0.46 0.44 0.25 0.23 0.36 0.44 0.13 0.18 0.60 0.28 0.23 0.30 0.41 0.32 0.27 0.38
0.00 0.00 0.00 0.00 0.00 0.00 0.00 0.00 0.00 0.00 0.00 0.00 0.00 0.00 0.00 0.00 0.00 0.00 0.00 0.00 0.00 0.00 0.00 0.00 0.01 0.04 0.09 0.08 0.09 0.16 0.15 0.03 0.07 0.10 0.42 0.89 0.77 1.01 0.73 0.69 1.45 1.37 2.22 2.06 1.91 1.93 1.21 1.25 1.33 1.44 1.52 0.87 0.56 0.77 1.21 1.04 1.06 1.17 1.03 0.60 0.51 0.94 0.94 0.36 0.50 0.49 0.73 1.01 0.58 0.43 0.63 0.54 0.63 0.92 0.70 0.64 0.47 0.43 0.35 0.36 0.51 0.70 0.96 0.40 0.37 0.44 0.61 0.25 0.38 0.42 0.56 0.33 0.24 0.31 0.43 0.36 0.27
0.00 0.00 0.01 0.00 0.00 0.00 0.00 0.00 0.00 0.00 0.00 0.00 0.00 0.00 0.00 0.00 0.00 0.00 0.00 0.00 0.00 0.00 0.00 0.01 0.02 0.04 0.04 0.05 0.10 0.15 0.20 0.21 0.08 0.12 0.28 0.27 0.75 0.80 0.87 1.01 1.59 1.59 1.28 1.40 1.05 1.53 1.40 1.33 1.24 1.12 1.47 0.68 0.57 0.64 0.91 1.03 1.14 0.82 0.41 0.32 0.35 0.15 0.33 0.24 0.34 0.38 0.82 0.75 0.59 1.30 1.19 0.73 0.78 0.33 0.39 0.34 0.23 0.27 0.30 0.47 0.61 0.57 0.60 0.67 0.66 0.52 0.46 0.24 0.38 0.51 0.60 0.24 0.21 0.17 0.25 0.38 0.25
0.00 0.00 0.00 0.00 0.00 0.01 0.00 0.00 0.00 0.00 0.00 0.00 0.00 0.00 0.00 0.00 0.00 0.00 0.00 0.00 0.00 0.00 0.00 0.00 0.01 0.01 0.01 0.03 0.07 0.05 0.10 0.43 0.29 0.60 0.22 0.68 0.79 0.39 0.42 0.56 0.86 1.05 1.00 1.22 1.03 0.77 1.01 0.59 0.91 1.32 1.14 0.82 0.35 0.33 0.47 0.72 0.66 0.52 0.42 0.24 0.14 0.20 0.45 0.33 0.58 0.43 0.77 0.71 1.21 1.42 0.89 0.65 0.75 0.25 0.41 0.22 0.40 0.46 0.48 0.46 0.42 0.39 0.36 0.64 0.61 0.46 0.62 0.37 0.40 0.40 0.42 0.39 0.69 1.37 0.50 0.30 0.45
0.00 0.00 0.00 0.00 0.00 0.00 0.00 0.00 0.00 0.00 0.00 0.00 0.00 0.00 0.00 0.00 0.00 0.00 0.00 0.00 0.00 0.00 0.00 0.00 0.00 0.00 0.00 0.02 0.07 0.02 0.14 0.37 0.53 0.46 0.43 0.85 0.35 0.38 0.44 0.53 0.79 0.93 0.83 0.48 0.91 0.68 0.90 0.65 1.20 1.20 1.11 0.79 0.85 0.73 0.45 0.58 0.68 0.41 0.33 0.41 0.23 0.54 0.59 0.37 0.42 0.56 0.71 0.87 1.01 0.93 1.06 0.87 0.51 0.67 0.49 0.36 0.56 0.47 0.48 0.34 0.22 0.22 0.31 0.27 0.45 0.41 0.43 0.16 0.14 0.40 0.40 0.37 0.32 0.49 0.34 0.22 0.51
0.00 0.00 0.00 0.00 0.00 0.00 0.00 0.00 0.00 0.00 0.00 0.00 0.00 0.00 0.00 0.00 0.00 0.01 0.00 0.00 0.01 0.01 0.01 0.01 0.00 0.01 0.02 0.02 0.04 0.05 0.07 0.07 0.23 0.43 0.46 0.46 0.41 0.34 0.32 0.29 0.59 0.63 0.61 0.91 0.27 0.61 0.84 1.00 0.92 1.35 0.96 1.18 1.11 1.38 1.19 1.13 0.84 0.98 1.09 0.87 0.50 0.61 1.08 0.94 0.60 0.71 0.80 0.64 0.54 1.10 0.78 0.27 0.31 0.48 0.43 0.38 0.43 0.30 0.36 0.45 0.44 0.68 0.38 0.55 0.38 0.48 0.38 0.26 0.24 0.22 0.48 0.36 0.40 0.29 0.52 0.40 0.66
0.00 0.00 0.00 0.00 0.00 0.00 0.00 0.00 0.00 0.00 0.00 0.00 0.00 0.00 0.00 0.00 0.00 0.01 0.01 0.01 0.01 0.01 0.00 0.01 0.01 0.01 0.07 0.06 0.09 0.05 0.02 0.03 0.18 0.25 0.38 0.26 0.16 0.62 0.49 0.29 0.57 0.57 1.29 0.83 0.91 0.91 0.73 0.79 1.05 0.80 0.71 0.81 0.88 0.68 0.92 1.14 0.97 0.95 1.19 1.27 0.94 1.07 1.33 0.72 0.55 0.78 0.69 1.17 1.12 1.51 0.63 0.58 0.51 0.36 0.45 0.68 0.53 0.30 0.61 0.59 0.68 0.90 0.68 0.61 0.53 0.51 0.51 0.24 0.25 0.27 0.32 0.29 0.32 0.46 0.46 0.69 0.27
0.00 0.00 0.00 0.00 0.00 0.00 0.00 0.02 0.00 0.00 0.00 0.00 0.00 0.00 0.00 0.00 0.00 0.00 0.00 0.00 0.00 0.00 0.00 0.00 0.01 0.03 0.02 0.04 0.03 0.08 0.02 0.09 0.21 0.20 0.55 0.17 0.17 0.45 0.64 0.37 0.56 1.08 0.53 0.73 1.17 0.96 0.91 0.84 0.83 0.66 0.86 0.88 0.84 0.72 0.42 1.11 1.52 1.38 1.25 1.44 1.28 0.91 1.01 0.82 0.74 0.72 0.51 0.52 1.09 0.82 0.49 0.21 0.13 0.19 1.00 1.29 0.81 0.57 0.71 0.69 0.50 0.56 0.43 0.46 0.52 0.57 0.44 0.35 0.15 0.09 0.10 0.17 0.22 0.25 0.37 0.26 0.46
0.00 0.00 0.00 0.00 0.00 0.00 0.00 0.00 0.00 0.00 0.00 0.00 0.00 0.00 0.00 0.00 0.00 0.00 0.01 0.00 0.00 0.01 0.00 0.01 0.04 0.05 0.02 0.05 0.07 0.04 0.02 0.03 0.33 0.12 0.29 0.25 0.19 0.67 0.65 0.85 1.31 1.40 0.87 0.84 1.08 1.17 1.41 0.87 1.08 0.54 0.93 0.85 0.39 0.50 0.85 1.12 1.14 0.87 0.95 0.85 0.63 0.65 0.91 0.73 0.60 0.36 0.30 0.33 0.20 0.17 0.38 0.15 0.20 0.17 0.49 1.27 0.74 0.60 1.04 1.11 1.05 0.73 0.55 0.52 0.34 0.24 0.27 0.23 0.07 0.10 0.05 0.12 0.16 0.16 0.27 0.50 0.30
0.00 0.00 0.00 0.00 0.00 0.00 0.00 0.00 0.00 0.00 0.00 0.02 0.00 0.00 0.02 0.00 0.01 0.00 0.00 0.01 0.01 0.01 0.01 0.03 0.02 0.04 0.11 0.09 0.07 0.05 0.05 0.05 0.13 0.21 0.12 0.24 0.41 0.71 0.27 0.66 0.92 0.74 1.06 0.70 0.74 1.32 0.58 0.36 0.89 0.77 0.81 0.67 0.42 0.57 0.70 0.61 0.81 0.80 0.54 0.45 0.56 0.56 0.50 0.67 0.52 0.52 0.32 0.21 0.15 0.21 0.44 0.68 0.55 0.51 0.67 1.13 0.92 0.26 0.72 0.94 0.61 0.59 0.55 0.57 0.51 0.35 0.35 0.11 0.14 0.18 0.12 0.16 0.23 0.13 0.14 0.25 0.16
0.00 0.00 0.00 0.00 0.00 0.00 0.00 0.00 0.00 0.01 0.00 0.00 0.00 0.00 0.02 0.03 0.01 0.00 0.01 0.01 0.01 0.01 0.02 0.03 0.03 0.05 0.07 0.09 0.12 0.05 0.05 0.05 0.08 0.19 0.65 0.63 0.62 0.38 0.34 0.78 0.68 1.18 1.29 0.80 1.30 1.46 1.09 0.67 0.54 1.00 0.63 0.37 0.58 0.77 0.47 0.24 0.79 0.87 0.73 0.75 1.14 0.97 0.95 0.93 0.27 0.34 0.43 0.25 0.34 0.23 0.73 1.10 0.63 0.58 0.88 0.58 0.97 0.84 0.83 0.79 0.82 0.47 0.30 0.34 0.35 0.28 0.22 0.17 0.20 0.17 0.14 0.10 0.08 0.14 0.23 0.15 0.25
0.00 0.00 0.00 0.00 0.00 0.00 0.00 0.00 0.00 0.00 0.01 0.03 0.00 0.00 0.00 0.01 0.01 0.00 0.00 0.01 0.01 0.02 0.03 0.03 0.03 0.03 0.06 0.08 0.08 0.13 0.13 0.26 0.18 0.52 0.58 0.92 0.57 0.62 0.64 0.58 0.88 0.98 0.91 1.18 1.93 2.69 1.28 1.07 1.01 1.25 0.80 0.61 0.55 0.67 0.77 1.05 1.26 1.19 1.02 1.40 1.25 1.08 0.84 0.83 0.32 0.13 0.12 0.23 0.30 0.84 0.74 1.51 1.19 0.80 0.78 0.85 0.64 0.45 0.37 0.42 0.46 0.48 0.37 0.26 0.20 0.31 0.28 0.30 0.21 0.14 0.05 0.13 0.10 0.10 0.17 0.24 0.32
0.00 0.00 0.00 0.00 0.00 0.00 0.00 0.00 0.00 0.02 0.00 0.02 0.01 0.02 0.01 0.03 0.00 0.01 0.00 0.00 0.02 0.06 0.07 0.08 0.07 0.06 0.05 0.07 0.06 0.10 0.20 0.18 0.33 0.44 0.39 0.54 1.38 1.18 0.57 0.23 0.64 1.17 2.55 2.34 2.85 2.75 1.42 1.18 1.15 0.51 0.44 0.90 0.66 0.63 0.50 0.86 0.56 1.19 1.64 1.68 1.13 1.09 1.27 0.40 0.39 0.49 0.35 0.61 0.32 1.09 1.26 0.69 0.88 0.67 0.62 0.71 0.54 0.74 0.66 0.48 0.49 0.40 0.32 0.56 0.24 0.24 0.20 0.24 0.23 0.18 0.11 0.14 0.17 0.11 0.07 0.10 0.12
0.00 0.00 0.00 0.00 0.00 0.00 0.00 0.00 0.00 0.01 0.00 0.01 0.00 0.01 0.01 0.06 0.02 0.04 0.02 0.03 0.04 0.03 0.08 0.07 0.07 0.04 0.07 0.07 0.08 0.06 0.07 0.20 0.32 0.61 0.58 0.96 1.35 1.18 0.59 0.71 1.30 1.67 2.55 2.45 3.25 1.43 1.19 1.06 1.32 1.14 0.53 0.56 0.63 0.65 0.48 0.72 0.74 0.63 1.16 1.22 1.32 1.21 0.54 0.62 0.66 0.38 0.50 0.80 0.35 0.61 0.62 0.47 0.37 0.39 0.36 0.50 0.48 0.40 0.44 0.38 0.35 0.39 0.34 0.28 0.33 0.31 0.32 0.28 0.25 0.27 0.27 0.15 0.11 0.08 0.06 0.19 0.10
0.00 0.00 0.00 0.00 0.00 0.00 0.00 0.00 0.00 0.04 0.00 0.02 0.00 0.00 0.04 0.10 0.07 0.06 0.04 0.03 0.06 0.06 0.08 0.05 0.06 0.08 0.09 0.06 0.12 0.05 0.05 0.10 0.32 0.40 0.74 0.71 0.54 0.64 0.53 0.78 1.27 2.99 3.14 2.93 1.61 1.09 1.15 1.02 0.99 0.81 0.65 0.40 0.53 0.75 0.91 1.00 1.52 0.95 1.66 1.66 1.00 0.72 0.59 0.40 0.42 0.23 0.26 0.36 0.34 0.54 0.26 0.21 0.35 0.63 1.24 0.65 0.48 0.28 0.24 0.24 0.31 0.45 0.41 0.24 0.19 0.25 0.21 0.23 0.15 0.25 0.35 0.14 0.08 0.09 0.07 0.05 0.12
0.00 0.00 0.00 0.01 0.08 0.00 0.01 0.00 0.00 0.00 0.01 0.00 0.00 0.01 0.01 0.01 0.11 0.16 0.03 0.06 0.04 0.05 0.05 0.13 0.05 0.04 0.06 0.03 0.05 0.16 0.04 0.13 0.27 0.55 0.64 0.77 0.76 0.68 0.98 1.75 1.00 0.74 2.39 2.16 1.44 1.49 0.87 1.01 1.16 1.31 1.38 0.76 1.04 0.83 1.03 1.63 1.91 1.67 2.42 1.34 0.55 0.52 0.30 0.32 0.23 0.24 0.90 0.59 0.52 0.56 0.43 0.43 0.30 0.60 0.33 0.19 0.24 0.27 0.25 0.25 0.25 0.27 0.35 0.37 0.37 0.24 0.26 0.14 0.69 0.62 0.43 0.20 0.20 0.10 0.10 0.07 0.24
0.00 0.00 0.00 0.03 0.07 0.04 0.01 0.05 0.01 0.04 0.02 0.00 0.00 0.01 0.05 0.17 0.08 0.08 0.07 0.08 0.04 0.03 0.03 0.03 0.02 0.02 0.02 0.03 0.06 0.10 0.08 0.32 0.35 0.62 0.59 0.64 0.48 1.16 0.95 0.73 0.64 0.87 1.78 1.99 1.07 0.81 1.01 1.01 1.01 1.56 1.42 0.77 1.11 1.16 1.11 0.76 1.96 2.30 1.23 0.47 0.34 0.27 0.22 0.26 0.58 0.17 0.15 0.26 0.56 0.20 0.33 0.21 0.26 0.36 0.66 0.42 0.33 0.48 0.74 0.50 0.59 0.33 0.31 0.43 0.40 0.30 0.20 0.19 0.13 0.17 0.28 0.18 0.10 0.12 0.11 0.13 0.17
0.00 0.00 0.00 0.02 0.05 0.02 0.01 0.02 0.06 0.06 0.09 0.06 0.00 0.00 0.06 0.06 0.87 0.24 0.10 0.10 0.03 0.01 0.02 0.03 0.06 0.07 0.03 0.04 0.16 0.14 0.17 0.09 0.19 0.25 0.42 0.95 1.20 1.08 0.84 1.08 0.85 0.65 1.56 1.22 0.69 0.70 0.65 0.61 0.95 1.48 1.55 1.23 0.84 1.44 0.75 1.42 1.62 0.88 1.22 0.83 0.48 0.20 0.23 0.29 0.43 0.31 0.36 0.10 0.21 0.64 0.24 0.21 0.36 0.52 0.70 0.36 0.50 0.41 0.95 0.46 0.37 0.23 0.15 0.16 0.25 0.30 0.27 0.51 0.52 0.67 0.28 0.28 0.38 0.14 0.08 0.13 0.14
0.00 0.00 0.01 0.00 0.03 0.00 0.02 0.18 0.02 0.19 0.05 0.02 0.05 0.03 0.11 0.15 0.46 0.86 0.65 0.06 0.01 0.04 0.03 0.03 0.04 0.05 0.02 0.11 0.13 0.17 0.17 0.16 0.34 0.49 1.02 1.20 1.19 1.14 0.99 0.82 0.83 0.72 0.78 0.60 0.35 0.46 0.87 0.85 0.94 1.52 1.54 1.50 1.61 1.73 2.04 2.52 1.61 0.46 0.30 0.15 0.20 0.36 0.43 0.27 0.26 0.36 0.35 0.11 0.28 0.23 0.64 0.33 0.77 0.15 0.11 0.14 0.40 0.24 0.25 0.40 0.32 0.24 0.21 0.19 0.15 0.23 0.36 0.16 0.17 0.17 0.20 0.15 0.16 0.28 0.30 0.16 0.11
0.06 0.00 0.01 0.00 0.00 0.00 0.00 0.00 0.00 0.00 0.00 0.01 0.01 0.13 0.03 0.04 0.21 0.63 0.54 0.04 0.07 0.11 0.05 0.04 0.26 0.37 0.49 0.59 0.80 0.88 0.85 0.76 0.94 1.25 1.29 1.14 1.17 0.96 1.03 0.52 0.38 0.29 0.43 0.38 0.64 1.06 0.98 1.00 0.77 0.54 0.73 0.73 1.68 1.17 1.09 1.99 1.45 0.92 0.89 0.41 0.30 0.26 0.23 0.09 0.11 0.05 0.21 0.36 0.40 0.45 0.26 0.23 0.59 0.68 0.54 0.62 0.67 0.52 0.29 0.44 0.37 0.37 0.35 0.14 0.11 0.09 0.15 0.16 0.15 0.11 0.09 0.09 0.09 0.09 0.12 0.19 0.20
0.00 0.01 0.05 0.00 0.00 0.00 0.01 0.04 0.01 0.00 0.00 0.11 0.01 0.06 0.15 0.04 0.50 0.37 0.43 0.33 0.22 0.18 0.23 0.41 0.42 0.52 0.60 0.75 0.72 0.84 0.98 1.05 0.80 0.91 0.75 0.73 0.61 0.84 0.83 0.56 0.79 0.43 0.45 0.32 0.46 0.80 0.74 1.12 1.09 0.70 1.05 1.37 1.23 0.98 0.70 0.78 0.95 1.30 0.77 0.40 0.38 0.25 0.24 0.17 0.16 0.08 0.20 0.61 0.43 0.81 0.45 0.48 0.19 0.20 0.35 0.41 0.23 0.23 0.20 0.19 0.20 0.18 0.33 0.20 0.14 0.09 0.10 0.16 0.14 0.22 0.15 0.11 0.14 0.09 0.06 0.16 0.08
0.00 0.06 0.00 0.01 0.03 0.02 0.01 0.01 0.02 0.01 0.00 0.04 0.02 0.05 0.12 0.16 0.41 0.17 0.50 0.52 0.31 0.23 0.24 0.15 0.13 0.11 0.34 0.69 0.95 0.88 0.53 0.55 0.50 0.67 0.63 0.41 0.52 0.44 0.58 0.52 0.43 0.55 1.02 0.50 0.50 0.46 0.28 0.32 0.43 0.37 0.90 1.28 1.85 1.78 1.30 1.90 1.19 1.77 0.95 0.52 0.48 0.33 0.66 0.63 0.42 0.42 0.70 0.61 0.37 0.49 0.30 0.21 0.47 0.46 0.32 0.35 0.16 0.22 0.45 0.22 0.12 0.19 0.09 0.22 0.28 0.19 0.15 0.10 0.10 0.03 0.11 0.12 0.09 0.14 0.10 0.03 0.04
0.00 0.00 0.00 0.00 0.00 0.09 0.04 0.00 0.03 0.00 0.10 0.00 0.10 0.02 0.08 0.15 0.33 0.26 0.31 0.27 0.41 0.23 0.20 0.33 0.33 0.46 0.31 0.33 0.24 0.36 0.39 0.53 0.61 0.68 0.68 0.61 0.54 0.85 0.74 0.66 0.67 0.74 0.39 0.34 0.75 1.26 1.03 0.98 0.42 0.42 0.67 1.71 0.56 0.41 1.42 1.26 0.85 0.51 0.77 0.70 0.61 0.44 0.24 0.34 0.57 0.42 0.42 0.41 0.11 0.21 0.29 0.45 0.31 0.47 0.35 0.27 0.29 0.19 0.62 0.24 0.25 0.06 0.10 0.14 0.16 0.28 0.27 0.23 0.27 0.11 0.14 0.21 0.08 0.06 0.07 0.11 0.09
0.00 0.00 0.00 0.00 0.00 0.02 0.00 0.06 0.04 0.03 0.07 0.09 0.07 0.19 0.38 0.24 0.26 0.17 0.38 0.23 0.16 0.44 0.41 0.30 0.46 0.50 0.68 0.59 0.34 0.38 0.42 0.45 0.41 0.62 0.47 0.79 0.74 0.75 0.75 0.69 0.78 0.73 0.63 1.37 1.54 1.45 1.48 1.41 1.06 1.52 1.28 1.01 1.30 1.02 1.12 1.05 1.01 0.65 0.49 0.59 0.54 0.34 0.15 0.28 0.60 0.49 0.18 0.06 0.35 0.29 0.45 0.13 0.30 0.21 0.17 0.19 0.17 0.19 0.39 0.12 0.09 0.06 0.04 0.06 0.03 0.10 0.13 0.21 0.11 0.28 0.29 0.31 0.74 0.20 0.09 0.14 0.30
0.00 0.00 0.00 0.00 0.01 0.01 0.03 0.03 0.00 0.01 0.02 0.12 0.07 0.15 0.19 0.46 0.24 0.47 0.36 0.13 0.47 0.39 0.54 0.59 0.49 0.43 0.31 0.29 0.46 0.37 0.55 0.39 0.31 0.24 0.50 0.49 0.60 0.99 0.83 0.81 0.81 0.68 0.71 0.74 0.84 0.68 0.62 1.01 1.63 1.57 1.88 1.73 1.43 1.39 1.04 1.56 0.90 1.19 0.72 0.90 0.23 0.45 0.14 0.08 0.21 0.75 0.42 0.46 0.24 0.34 0.42 0.31 0.25 0.48 0.21 0.33 0.13 0.25 0.19 0.07 0.05 0.06 0.02 0.01 0.04 0.01 0.02 0.16 0.60 0.17 0.26 0.31 0.09 0.13 0.15 0.17 0.24